When you browse on this site, cookies collect data to enhance your experience and personalize the content and advertising you see.
Visit our Privacy Policy to learn more. By continuing to use the site, you agree to this use of cookies and data.
  • In Hungary
  • List of Countries
  • For 7 days
  • Water Temperature
  • Weather Map
  • News
  • Weather Widgets
  • user-avatar
    Login

    Hourly Weather Julianowo

    Today, 6 December, Friday

    Time Temperature Precipitation Wind Pressure Humidity
    00:00 -2°C° 0 mm 5 mps 746 mmHg 73%
    01:00 -2°C° 0 mm 5 mps 746 mmHg 74%
    02:00 -2°C° 0 mm 5 mps 745 mmHg 74%
    03:00 -2°C° 0 mm 5 mps 745 mmHg 73%
    04:00 -3°C° 0 mm 6 mps 744 mmHg 72%
    05:00 -3°C° 0 mm 6 mps 744 mmHg 70%
    06:00 -3°C° 0 mm 6 mps 744 mmHg 69%
    07:00 -4°C° 0 mm 7 mps 743 mmHg 67%
    08:00 -3°C° 0 mm 7 mps 743 mmHg 62%
    09:00 -2°C° 0 mm 7 mps 743 mmHg 58%
    10:00 -2°C° 0 mm 7 mps 742 mmHg 54%
    11:00 -1°C° 0 mm 7 mps 742 mmHg 53%
    12:00 -1°C° 0 mm 7 mps 742 mmHg 52%
    13:00 0°C° 0 mm 7 mps 742 mmHg 50%
    14:00 0°C° 0 mm 7 mps 742 mmHg 52%
    15:00 -1°C° 0 mm 6 mps 741 mmHg 54%
    16:00 -1°C° 0 mm 6 mps 741 mmHg 56%
    17:00 -1°C° 0 mm 6 mps 741 mmHg 57%
    18:00 -1°C° 0 mm 6 mps 741 mmHg 57%
    19:00 0°C° 0 mm 5 mps 741 mmHg 57%
    20:00 0°C° 0.1 mm 5 mps 741 mmHg 61%
    21:00 0°C° 0.1 mm 5 mps 741 mmHg 64%
    22:00 0°C° 0.1 mm 5 mps 740 mmHg 67%
    23:00 0°C° 0.1 mm 5 mps 740 mmHg 65%

    Tomorrow, 7 December, Saturday

    Time Temperature Precipitation Wind Pressure Humidity
    00:00 0°C° 0.1 mm 5 mps 740 mmHg 64%
    01:00 0°C° 0.1 mm 5 mps 740 mmHg 63%
    02:00 0°C° 0.1 mm 5 mps 739 mmHg 64%
    03:00 0°C° 0.1 mm 5 mps 738 mmHg 64%
    04:00 -1°C° 0.1 mm 6 mps 738 mmHg 64%
    05:00 -1°C° 0.1 mm 6 mps 737 mmHg 66%
    06:00 -1°C° 0.1 mm 6 mps 737 mmHg 67%
    07:00 -1°C° 0.1 mm 6 mps 737 mmHg 68%
    08:00 -1°C° 0.1 mm 6 mps 737 mmHg 72%
    09:00 +1°C° 0.1 mm 6 mps 737 mmHg 75%
    10:00 +1°C° 0.1 mm 6 mps 736 mmHg 79%
    11:00 +2°C° 0 mm 6 mps 736 mmHg 82%
    12:00 +2°C° 0 mm 6 mps 736 mmHg 86%
    13:00 +3°C° 0 mm 6 mps 736 mmHg 89%
    14:00 +3°C° 0.3 mm 6 mps 735 mmHg 89%
    15:00 +3°C° 0.3 mm 6 mps 735 mmHg 90%
    16:00 +3°C° 0.3 mm 6 mps 735 mmHg 90%
    17:00 +3°C° 0.7 mm 5 mps 736 mmHg 90%
    18:00 +5°C° 0.7 mm 5 mps 736 mmHg 89%
    19:00 +5°C° 0.7 mm 5 mps 737 mmHg 89%
    20:00 +3°C° 0.1 mm 5 mps 737 mmHg 84%
    21:00 +3°C° 0.1 mm 5 mps 737 mmHg 79%
    22:00 +2°C° 0.1 mm 6 mps 737 mmHg 73%
    23:00 +2°C° 0 mm 6 mps 738 mmHg 75%

    Day after tomorrow, 8 December, Sunday

    Time Temperature Precipitation Wind Pressure Humidity
    00:00 +2°C° 0 mm 5 mps 738 mmHg 77%
    01:00 +1°C° 0 mm 5 mps 738 mmHg 79%
    02:00 +1°C° 0 mm 5 mps 738 mmHg 81%
    03:00 +1°C° 0 mm 5 mps 739 mmHg 83%
    04:00 0°C° 0 mm 5 mps 739 mmHg 85%
    05:00 0°C° 0 mm 5 mps 739 mmHg 86%
    06:00 +1°C° 0 mm 5 mps 739 mmHg 87%
    07:00 +1°C° 0 mm 4 mps 739 mmHg 88%
    08:00 +1°C° 0 mm 5 mps 739 mmHg 88%
    09:00 +2°C° 0 mm 5 mps 739 mmHg 88%
    10:00 +3°C° 0 mm 5 mps 739 mmHg 88%
    11:00 +3°C° 0 mm 5 mps 739 mmHg 86%
    12:00 +3°C° 0 mm 5 mps 738 mmHg 84%
    13:00 +5°C° 0 mm 5 mps 738 mmHg 82%
    14:00 +4°C° 0 mm 6 mps 737 mmHg 82%
    15:00 +4°C° 0 mm 6 mps 737 mmHg 81%
    16:00 +4°C° 0 mm 6 mps 736 mmHg 81%
    17:00 +4°C° 0 mm 7 mps 736 mmHg 79%
    18:00 +4°C° 0 mm 7 mps 735 mmHg 78%
    19:00 +4°C° 0 mm 7 mps 735 mmHg 76%
    20:00 +4°C° 0.1 mm 7 mps 734 mmHg 78%
    21:00 +4°C° 0.1 mm 7 mps 734 mmHg 80%
    22:00 +4°C° 0.1 mm 7 mps 733 mmHg 82%
    23:00 +5°C° 0.1 mm 7 mps 733 mmHg 82%

    9 December, Monday

    Time Temperature Precipitation Wind Pressure Humidity
    00:00 +5°C° 0.1 mm 6 mps 733 mmHg 83%
    01:00 +7°C° 0.1 mm 6 mps 733 mmHg 84%
    02:00 +5°C° 0 mm 6 mps 732 mmHg 85%
    03:00 +6°C° 0 mm 5 mps 732 mmHg 86%
    04:00 +6°C° 0 mm 5 mps 732 mmHg 88%
    05:00 +5°C° 0 mm 5 mps 732 mmHg 87%
    06:00 +5°C° 0 mm 4 mps 732 mmHg 85%
    07:00 +5°C° 0 mm 4 mps 732 mmHg 84%
    08:00 +5°C° 0.1 mm 4 mps 733 mmHg 84%
    09:00 +5°C° 0.1 mm 4 mps 733 mmHg 83%
    10:00 +5°C° 0.1 mm 4 mps 733 mmHg 83%
    11:00 +5°C° 0 mm 4 mps 733 mmHg 80%
    12:00 +5°C° 0 mm 4 mps 733 mmHg 77%
    13:00 +6°C° 0 mm 4 mps 733 mmHg 74%
    14:00 +5°C° 0 mm 4 mps 733 mmHg 76%
    15:00 +4°C° 0 mm 3 mps 733 mmHg 78%
    16:00 +4°C° 0 mm 3 mps 733 mmHg 80%
    17:00 +3°C° 0 mm 3 mps 733 mmHg 82%
    18:00 +3°C° 0 mm 3 mps 733 mmHg 85%
    19:00 +3°C° 0 mm 3 mps 734 mmHg 88%
    20:00 +3°C° 0 mm 3 mps 734 mmHg 87%
    21:00 +3°C° 0 mm 3 mps 734 mmHg 86%
    22:00 +3°C° 0 mm 3 mps 734 mmHg 86%
    23:00 +2°C° 0 mm 3 mps 734 mmHg 87%

    10 December, Tuesday

    Time Temperature Precipitation Wind Pressure Humidity
    00:00 +2°C° 0 mm 3 mps 734 mmHg 89%
    01:00 +2°C° 0 mm 3 mps 734 mmHg 91%
    02:00 +1°C° 0 mm 3 mps 734 mmHg 91%
    03:00 +1°C° 0 mm 3 mps 734 mmHg 91%
    04:00 +1°C° 0 mm 3 mps 734 mmHg 91%
    05:00 +1°C° 0 mm 3 mps 734 mmHg 92%
    06:00 +1°C° 0 mm 2 mps 734 mmHg 93%
    07:00 +1°C° 0 mm 2 mps 734 mmHg 94%
    08:00 +2°C° 0 mm 2 mps 734 mmHg 92%
    09:00 +2°C° 0 mm 2 mps 735 mmHg 90%
    10:00 +3°C° 0 mm 2 mps 735 mmHg 88%
    11:00 +3°C° 0.1 mm 2 mps 735 mmHg 89%
    12:00 +3°C° 0.1 mm 2 mps 736 mmHg 89%
    13:00 +4°C° 0.1 mm 2 mps 736 mmHg 90%
    14:00 +4°C° 0.2 mm 2 mps 737 mmHg 91%
    15:00 +3°C° 0.2 mm 2 mps 737 mmHg 93%
    16:00 +3°C° 0.2 mm 2 mps 738 mmHg 95%
    17:00 +2°C° 0.2 mm 3 mps 739 mmHg 93%
    18:00 +1°C° 0.2 mm 5 mps 740 mmHg 92%
    19:00 +1°C° 0.2 mm 6 mps 741 mmHg 91%
    20:00 -1°C° 0.1 mm 6 mps 742 mmHg 86%
    21:00 0°C° 0.1 mm 5 mps 743 mmHg 82%
    22:00 0°C° 0.1 mm 5 mps 744 mmHg 77%
    23:00 -1°C° 0 mm 4 mps 745 mmHg 76%

    11 December, Wednesday

    Time Temperature Precipitation Wind Pressure Humidity
    00:00 -1°C° 0 mm 3 mps 745 mmHg 75%
    01:00 -2°C° 0 mm 2 mps 746 mmHg 74%
    02:00 -2°C° 0 mm 2 mps 746 mmHg 72%
    03:00 0°C° 0 mm 1 mps 747 mmHg 71%
    04:00 0°C° 0 mm 1 mps 747 mmHg 70%
    05:00 0°C° 0 mm 1 mps 747 mmHg 68%
    06:00 0°C° 0 mm 1 mps 747 mmHg 67%
    07:00 0°C° 0 mm 1 mps 747 mmHg 66%
    08:00 -2°C° 0 mm 2 mps 747 mmHg 64%
    09:00 -1°C° 0 mm 3 mps 747 mmHg 62%
    10:00 -2°C° 0 mm 4 mps 747 mmHg 60%
    11:00 -2°C° 0 mm 4 mps 746 mmHg 61%
    12:00 -1°C° 0 mm 4 mps 746 mmHg 61%
    13:00 -1°C° 0 mm 5 mps 745 mmHg 62%
    14:00 -1°C° 0 mm 5 mps 745 mmHg 66%
    15:00 -2°C° 0 mm 5 mps 744 mmHg 70%
    16:00 -2°C° 0 mm 5 mps 744 mmHg 73%
    17:00 -2°C° 0 mm 5 mps 744 mmHg 71%
    18:00 -3°C° 0 mm 6 mps 743 mmHg 70%
    19:00 -3°C° 0 mm 6 mps 743 mmHg 68%
    20:00 -3°C° 0 mm 6 mps 743 mmHg 65%
    21:00 -2°C° 0 mm 5 mps 743 mmHg 62%
    22:00 -2°C° 0 mm 5 mps 742 mmHg 59%
    23:00 -2°C° 0 mm 5 mps 742 mmHg 59%
    Show more